Change the Weather History Date:

Saturday, September 21, 2013

  Actual Average Record
Temperature  
Mean Temperature 66 °F 70 °F  
Max Temperature 82 °F 83 °F 98 °F (1998)
Min Temperature 49 °F 57 °F 33 °F (1983)
Degree Days  
Heating Degree Days 0 1  
Month to date heating degree days 0 8  
Since 1 July heating degree days 0 8  
Cooling Degree Days 1 6  
Month to date cooling degree days 249 180  
Year to date cooling degree days 1977 1706  
Growing Degree Days 16 (Base 50)    
Moisture  
Dew Point 48 °F    
Average Humidity 65    
Maximum Humidity 96    
Minimum Humidity 33    
Precipitation  
Precipitation 0.00 in 0.08 in 5.50 in (1936)
Month to date precipitation 0.08 1.80  
Year to date precipitation 9.86 14.87  
Snow  
Snow 0.00 in 0.00 in 0.00 in (2002)
Month to date snowfall 0.0 0.0  
Since 1 July snowfall 0.0 0.0  
Since 1 September snowfall 0.0 0.0  
Snow Depth 0.00 in    
Sea Level Pressure  
Sea Level Pressure 29.97 in    
Wind  
Wind Speed 6 mph (SE)    
Max Wind Speed 13 mph    
Max Gust Speed 16 mph    
Visibility 10 miles    
Events      
T = Trace of Precipitation, MM = Missing Value Source: NWS Daily Summary

Daily Weather History Graph

Daily Weather History Graph

Search for Another Location

Airport or City:

Trip Planner

Search our weather history database for the weather conditions in past years. The results will help you decide how hot, cold, wet, or windy it might be!

Date:

Astronomy

Sep. 21, 2013 Rise Set
Actual Time 7:34 AM CDT 7:45 PM CDT
Civil Twilight 7:10 AM CDT 8:09 PM CDT
Nautical Twilight 6:40 AM CDT 8:38 PM CDT
Astronomical Twilight 6:11 AM CDT 9:08 PM CDT
Moon 9:06 PM CDT (9/21) 9:46 AM CDT (9/21)
Length of Visible Light 12h 59m
Length of Day
12h 10m
Waning Gibbous, 94% of the Moon is Illuminated
Sep 21
Waning Gibbous
Sep 26
Last Quarter
Oct 4
New
Oct 11
First Quarter
Oct 18
Full

Hourly Weather History & Observations

Time (CDT) Temp. Dew Point Humidity Pressure Visibility Wind Dir Wind Speed Gust Speed Precip Events Conditions
12:53 AM 54.0 °F 52.0 °F 93% 30.04 in 10.0 mi NE 5.8 mph - N/A   Clear
1:53 AM 53.1 °F 51.1 °F 93% 30.04 in 10.0 mi NNE 4.6 mph - N/A   Clear
2:53 AM 52.0 °F 50.0 °F 93% 30.03 in 10.0 mi NE 5.8 mph - N/A   Clear
3:53 AM 52.0 °F 50.0 °F 93% 30.02 in 10.0 mi NE 5.8 mph - N/A   Clear
4:53 AM 51.1 °F 48.9 °F 92% 30.03 in 10.0 mi NNE 5.8 mph - N/A   Clear
5:53 AM 51.1 °F 48.9 °F 92% 30.02 in 10.0 mi NE 5.8 mph - N/A   Clear
6:53 AM 50.0 °F 48.0 °F 93% 30.03 in 10.0 mi NE 4.6 mph - N/A   Clear
7:53 AM 51.1 °F 48.0 °F 89% 30.05 in 10.0 mi NNW 4.6 mph - N/A   Clear
8:53 AM 57.0 °F 50.0 °F 77% 30.05 in 10.0 mi Calm Calm - N/A   Partly Cloudy
9:53 AM 63.0 °F 46.0 °F 54% 30.05 in 10.0 mi ESE 4.6 mph - N/A   Clear
10:53 AM 66.9 °F 48.9 °F 52% 30.04 in 10.0 mi ESE 3.5 mph - N/A   Clear
11:53 AM 72.0 °F 46.0 °F 40% 30.03 in 10.0 mi Variable 3.5 mph - N/A   Clear
12:53 PM 73.9 °F 46.0 °F 37% 30.01 in 10.0 mi Variable 3.5 mph - N/A   Partly Cloudy
1:53 PM 75.9 °F 46.9 °F 36% 29.98 in 10.0 mi Variable 4.6 mph - N/A   Partly Cloudy
2:53 PM 80.1 °F 48.0 °F 32% 29.94 in 10.0 mi South 6.9 mph - N/A   Partly Cloudy
3:53 PM 80.1 °F 48.0 °F 32% 29.92 in 10.0 mi SW 5.8 mph - N/A   Partly Cloudy
4:53 PM 80.1 °F 48.0 °F 32% 29.89 in 10.0 mi SSW 5.8 mph - N/A   Partly Cloudy
5:53 PM 80.1 °F 48.0 °F 32% 29.88 in 10.0 mi South 8.1 mph - N/A   Partly Cloudy
6:53 PM 79.0 °F 48.0 °F 34% 29.87 in 10.0 mi SSE 10.4 mph - N/A   Partly Cloudy
7:53 PM 73.9 °F 48.0 °F 40% 29.88 in 10.0 mi SSE 10.4 mph - N/A   Partly Cloudy
8:53 PM 72.0 °F 48.0 °F 43% 29.87 in 10.0 mi South 10.4 mph - N/A   Clear
9:53 PM 70.0 °F 46.9 °F 44% 29.88 in 10.0 mi South 11.5 mph - N/A   Clear
10:53 PM 68.0 °F 46.0 °F 45% 29.87 in 10.0 mi South 10.4 mph - N/A   Clear
11:53 PM 63.0 °F 46.0 °F 54% 29.88 in 10.0 mi SE 10.4 mph - N/A   Clear